Location: *
(6.1770°N, 170.5260°W)
Time: 07:29:59
(UTC+00:00)

Daily predictions for brighter satellites

Satellite Brightness Start Highest point End
(mag) Time Altitude Azimuth Time Altitude Azimuth Time Altitude Azimuth
Cosmos 2227 Rocket 4.0 14:40:32 24° ESE 14:41:17 25° ESE 14:45:47 10° NE
Cosmos 2297 Rocket 4.2 14:41:51 20° SE 14:43:21 22° ESE 14:47:38 10° NE
Okean O Rocket 3.9 14:45:17 10° NE 14:47:53 21° E 14:47:53 21° E
Meteor 1-24 Rocket 4.3 14:58:48 51° ENE 14:58:48 51° ENE 15:03:26 10° NNE
ISS -0.6 15:09:49 14° E 15:09:49 14° E 15:10:37 10° ENE
MAQSAT/ARIANE V 4.5 15:20:49 13° SSE 15:20:49 13° SSE 15:21:21 10° SSE
Atlas Centaur 2 3.7 15:17:02 36° NW 15:18:38 39° NNW 15:26:28 10° NE
ARIANE 5 DEB (SYLDA) 4.3 15:20:30 49° S 15:21:09 51° SSE 15:32:08 10° E
S3M 3.8 15:25:11 63° W 15:25:24 64° W 15:31:26 10° N
SPELTRA 3.7 15:24:08 44° W 15:27:00 86° N 15:31:07 10° E
Cosmos 1315 Rocket 3.2 15:27:48 62° E 15:27:48 62° E 15:31:46 10° NNE
Mugunghwa Rocket 4.2 15:26:25 53° WSW 15:28:29 89° NNW 15:35:28 10° ENE
Meteor 1-31 Rocket 3.3 15:25:17 10° NNE 15:28:26 55° NE 15:28:26 55° NE
Cosmos 1244 Rocket 4.3 15:23:13 10° N 15:29:23 82° W 15:35:39 10° S
DELTA-4 R/B 2.4 15:33:46 63° ENE 15:33:46 63° ENE 15:37:21 10° E
SWIFT 3.2 15:37:33 38° SSE 15:37:33 38° SSE 15:40:37 10° SE
CZ-4B R/B 3.1 15:31:35 10° NNE 15:36:59 87° ESE 15:40:13 25° SSW
ARIANE 5 DEB (SYLDA 5A) 4.1 15:42:54 14° SE 15:42:54 14° SE 15:43:50 10° SE
ARIANE 5 DEB (SYLDA) 4.4 15:39:58 33° SW 15:42:19 46° S 16:06:07 10° ESE
Tiangong 2 4.0 15:43:04 10° SSE 15:43:50 11° SE 15:44:36 10° ESE
Cosmos 2292 Rocket 3.3 15:41:04 10° N 15:43:58 55° E 15:47:14 10° SSE
Cosmos-2242 4.1 15:42:21 10° NNE 15:46:24 45° E 15:50:28 10° SSE
OAO 3 Rocket 3.1 15:46:25 54° WSW 15:46:58 59° SW 15:51:38 10° SE
PAYLOAD B 4.3 15:42:22 10° N 15:47:48 56° WNW 15:50:14 32° SW
Cosmos 2315 Rocket 4.3 15:41:46 10° S 15:48:01 68° E 15:54:12 10° N
Yuri Rocket 3.2 15:49:19 46° WSW 15:50:42 89° NNW 15:56:28 10° ENE
Cosmos 1125 Rocket 3.5 15:46:25 10° NNW 15:51:32 54° WSW 15:56:37 10° S
Ariane H10-3 4.0 15:53:11 14° SSE 15:53:11 14° SSE 15:53:56 10° SE
Cosmos 372 Rocket 4.2 15:50:15 10° NNW 15:55:06 43° WSW 15:59:55 10° S
Cosmos 2322 3.8 15:50:27 10° NNW 15:56:10 78° ENE 16:01:52 10° SSE
Cosmos 2237 4.3 15:53:18 10° NNW 15:59:00 79° ENE 16:04:42 10° SSE
ARIANE 5 R/B 3.7 15:59:03 27° SW 16:00:51 34° SSW 16:04:05 10° SE
H-2A R/B 4.0 15:49:12 15° SW 16:02:36 35° S 16:06:45 10° ESE
Shenzhou-11 Module 4.3 16:04:08 13° NNW 16:04:08 13° NNW 16:05:06 10° N
Okean-O 4.3 16:00:18 10° NE 16:04:19 35° ESE 16:08:20 10° SSE
ARIANE 5 R/B 3.7 16:03:40 22° SW 16:05:09 24° SSW 16:07:55 10° SSE
ATLAS CENTAUR R/B 1.7 16:06:29 10° NNW 16:11:16 89° ENE 16:16:10 10° SSE
Cosmos 2082 4.1 16:10:51 17° SW 16:14:53 43° WNW 16:20:14 10° N
Meteor 1-21 Rocket 4.1 16:09:35 10° S 16:15:07 82° W 16:20:43 10° N
Cosmos 2360 Rocket 2.5 16:10:49 10° NW 16:16:03 41° WSW 16:21:19 10° S
PAYLOAD A 3.9 16:11:30 10° N 16:16:35 78° WNW 16:21:28 10° SSW
Ariane H10 4.3 16:12:46 18° SW 16:17:29 57° SSE 16:52:22 10° E
CZ-2C R/B 2.6 16:13:16 10° NNE 16:17:47 68° ESE 16:22:21 10° S
Hubble Space Telescope 2.6 16:20:29 15° SW 16:21:05 15° SSW 16:23:32 10° S
MSX 4.0 16:15:33 10° NNE 16:21:15 75° ESE 16:26:58 10° S
Cosmos 1674 4.1 16:22:42 18° W 16:22:59 18° W 16:25:40 10° NW
IDEFIX/ARIANE 42P 2.7 16:18:27 10° N 16:23:35 57° WNW 16:28:44 10° SSW
Meteor 1-28 Rocket 3.1 16:20:04 10° S 16:23:41 62° W 16:27:19 10° NNW
Okean O Rocket 3.2 16:22:13 10° NW 16:24:43 15° WNW 16:25:21 15° W
Cosmos 2227 Rocket 3.3 16:22:26 17° WSW 16:25:03 23° WNW 16:29:22 10° NNW
Cosmos 2297 Rocket 3.2 16:23:45 15° WSW 16:27:05 25° WNW 16:31:41 10° NNW
ATLAS 5 CENTAUR R/B 3.6 16:20:51 10° WNW 16:29:13 25° NNW 16:33:00 10° NE
Palapa 6 Rocket 3.9 16:27:56 15° W 16:31:09 37° SSW 16:36:01 10° SE
Centaur D-1AR AC-39 3.9 16:29:26 10° NW 16:31:21 12° NNW 16:32:56 10° NNE
USA 161 2.0 16:28:59 10° S 16:31:50 38° W 16:34:40 10° NNW
Cosmos 1076 Rocket 3.9 16:27:45 10° S 16:32:00 66° E 16:36:17 10° NNE
Delta 2 Rocket 4.3 16:25:49 13° WSW 16:32:52 83° SSE 16:39:20 10° ENE
GPS 2-12 Rocket1 3.0 16:29:41 14° WSW 16:33:26 84° SSE 16:37:54 10° ENE
Meteor 2-1 Rocket 4.3 16:28:09 10° N 16:33:44 88° E 16:39:28 10° S
SL-14 R/B 3.5 16:34:07 10° SSW 16:38:03 51° W 16:41:59 10° N
COSMOS 2455 3.4 16:33:27 10° SW 16:38:56 37° WNW 16:44:26 10° N
COSMO-SKYMED 1 4.3 16:35:28 10° SE 16:39:29 38° ENE 16:43:31 10° N
Cosmos 1726 2.4 16:36:39 10° N 16:40:16 69° E 16:43:54 10° S
Cosmos 2219 Rocket 2.7 16:34:55 10° N 16:40:27 67° ENE 16:45:59 10° SSE
Cosmos 1626 2.7 16:37:46 10° S 16:41:26 62° E 16:45:04 10° NNE
ARIANE 5 DEB (SYLDA) 3.0 16:42:25 10° WSW 16:44:02 26° S 16:46:55 10° ESE
ISS -1.5 16:43:15 10° WNW 16:44:21 11° NW 16:45:27 10° NNW
Okean 3 Rocket 3.6 16:40:26 10° S 16:44:55 88° W 16:49:27 10° N
Cosmos 2333 Rocket 2.9 16:39:23 10° N 16:44:59 62° ENE 16:50:37 10° SSE
Cosmos 2333 4.3 16:41:59 10° NNW 16:47:30 58° WSW 16:53:04 10° S
Cosmos 1908 3.5 16:44:09 10° NNW 16:47:49 44° W 16:51:29 10° SSW
Cosmos 2237 Rocket 4.4 16:44:36 10° NNE 16:49:36 32° ENE 16:54:37 10° SE
COSMOS 2428 2.8 16:44:24 10° NNW 16:49:57 58° WSW 16:55:29 10° S
